Location: McFarlands Corners
(41.4117°N, 81.3382°W)
Time: 23:03:01
(UTC+00:00)

Vanguard 3 - Pass Details

Date: 19 November 2024
Orbit: 507 x 3220 km, 33.4° (Epoch: 06 December)

Event Time Altitude Azimuth Distance (km) Brightness Sun altitude
Rises 23:15:44 0° 277° (W) 5,959 13.0 -13.8°
Reaches altitude 10° 23:22:29 10° 258° (WSW) 4,295 12.3 -15.0°
Maximum altitude 23:27:39 14° 230° (SW) 3,383 11.2 -15.9°
Drops below altitude 10° 23:31:45 10° 200° (SSW) 3,247 10.6 -16.7°
Sets 23:35:38 0° 175° (S) 3,746 10.6 -17.4°
